DW3637 Weather Reports


Display with metric or nautical units.
time (UTC)temp
F
wind
direction
speed
MPH
gust
MPH
rain 1hr
in
rain 24hr
in
rain mn
in
humidity
%
barometer
mb
20260502211537 59 293 1.0 4.0 0.00 0.52 0.52 49 1008.8
20260502210517 59 315 1.0 3.0 0.00 0.52 0.52 52 1008.7
20260502205537 59 23 1.0 3.0 0.00 0.52 0.52 56 1008.8
20260502204517 59 315 2.0 7.0 0.00 0.52 0.52 54 1008.8
20260502203518 59 315 1.0 5.0 0.00 0.52 0.52 55 1008.8
20260502202537 58 248 1.0 4.0 0.00 0.52 0.52 56 1008.9
20260502201537 57 270 2.0 6.0 0.00 0.52 0.52 59 1009.1
20260502200517 57 293 1.0 3.0 0.00 0.52 0.52 62 1009.3
20260502195516 57 293 1.0 4.0 0.00 0.52 0.52 62 1009.4
20260502194517 57 270 1.0 3.0 0.00 0.52 0.52 65 1009.5
20260502193536 56 248 1.0 3.0 0.00 0.52 0.52 70 1009.7
20260502192516 55 0.0 2.0 0.00 0.52 0.52 72 1009.7
20260502191516 54 0.0 1.0 0.00 0.52 0.52 81 1009.8
20260502190516 54 0.0 2.0 0.00 0.52 0.52 80 1010.0
20260502185516 53 248 1.0 4.0 0.01 0.52 0.52 84 1009.9
20260502184517 53 248 1.0 3.0 0.02 0.52 0.52 86 1010.0
20260502183516 52 0.0 2.0 0.02 0.52 0.52 87 1010.0
20260502182516 52 0.0 1.0 0.03 0.52 0.52 89 1010.0
20260502181536 51 0.0 1.0 0.05 0.52 0.52 89 1010.0
20260502180536 51 270 1.0 2.0 0.06 0.52 0.52 90 1010.2
20260502170516 50 0.0 0.0 0.18 0.46 0.46 90 1010.3
20260502163516 50 0.0 1.0 0.21 0.43 0.43 89 1010.4
20260502162536 50 0.0 1.0 0.18 0.40 0.40 88 1010.5
20260502161519 51 338 1.0 5.0 0.14 0.36 0.36 85 1010.5
20260502160516 53 338 2.0 7.0 0.06 0.28 0.28 80 1010.5
20260502151536 54 0.0 2.0 0.00 0.22 0.22 81 1010.5
20260502150516 53 248 1.0 2.0 0.00 0.22 0.22 81 1010.7
20260502130547 50 0.0 1.0 0.00 0.22 0.22 92 1011.1
20260502123516 49 0.0 0.0 0.00 0.22 0.22 93 1011.2
20260502122536 49 0.0 0.0 0.02 0.22 0.22 93 1011.1
20260502121518 48 0.0 1.0 0.04 0.22 0.22 94 1011.2
20260502120516 48 0.0 1.0 0.07 0.22 0.22 94 1011.1
20260502115516 48 0.0 1.0 0.10 0.22 0.22 93 1011.2
20260502114516 47 0.0 1.0 0.11 0.22 0.22 93 1011.2
20260502113536 47 0.0 1.0 0.11 0.22 0.22 93 1011.4
20260502112536 47 0.0 1.0 0.11 0.20 0.20 93 1011.6
20260502111515 47 0.0 0.0 0.11 0.18 0.18 92 1011.6
20260502110516 47 0.0 1.0 0.11 0.15 0.15 92 1011.6
20260502105537 47 158 1.0 5.0 0.08 0.12 0.13 92 1011.4
20260502104515 47 0.0 1.0 0.07 0.11 0.11 91 1011.2
20260502103519 47 0.0 1.0 0.07 0.11 0.11 91 1011.2
20260502102516 47 0.0 1.0 0.05 0.09 0.09 91 1011.4
20260502101515 47 0.0 1.0 0.03 0.07 0.07 90 1011.6
20260502100524 47 0.0 1.0 0.00 0.04 0.04 90 1011.3
20260502091517 47 0.0 2.0 0.02 0.04 0.04 89 1010.5
20260502090518 48 0.0 1.0 0.03 0.04 0.04 89 1010.5
20260502071522 50 0.0 1.0 0.01 0.01 0.01 86 1010.5
20260502070517 51 0.0 1.0 0.01 0.01 0.01 84 1010.8
20260502065517 51 0.0 1.0 0.00 0.00 0.00 83 1010.9
20260502064517 51 0.0 1.0 0.00 0.00 0.00 82 1010.5
20260502063520 51 248 1.0 2.0 0.00 0.00 0.00 82 1010.7
20260502062517 51 0.0 1.0 0.00 0.00 0.00 81 1010.3
20260502061517 51 0.0 1.0 0.00 0.00 0.00 81 1010.3
20260502060517 51 0.0 0.0 0.00 0.00 0.00 78 1010.3
20260502055517 52 0.0 1.0 0.00 0.00 0.00 74 1010.6
20260502054517 53 0.0 0.0 0.00 0.00 0.00 70 1010.8
20260502053517 53 0.0 1.0 0.00 0.00 0.00 70 1011.0
20260502052517 53 0.0 0.0 0.00 0.00 0.00 69 1010.9
20260502051517 53 270 1.0 2.0 0.00 0.00 0.00 68 1011.0
20260502050517 53 0.0 1.0 0.00 0.00 0.00 68 1010.9
20260502045517 53 0.0 4.0 0.00 0.00 0.00 67 1010.8
20260502044517 54 0.0 1.0 0.00 0.00 0.00 67 1010.8
20260502043517 54 0.0 1.0 0.00 0.00 0.00 66 1010.5
20260502042517 54 0.0 2.0 0.00 0.00 0.00 66 1010.4
20260502041517 54 0.0 2.0 0.00 0.00 0.00 65 1010.4
20260502040518 54 0.0 2.0 0.00 0.00 0.00 64 1010.6
20260502035516 55 225 1.0 3.0 0.00 0.00 0.00 63 1010.6
20260502034520 55 225 1.0 2.0 0.00 0.00 0.00 61 1010.7
20260502033517 55 225 1.0 2.0 0.00 0.00 0.00 60 1010.6
20260502032517 56 225 1.0 2.0 0.00 0.00 0.00 59 1010.7
20260502031517 56 0.0 1.0 0.00 0.00 0.00 57 1010.8
20260502030518 57 248 1.0 3.0 0.00 0.00 0.00 55 1010.7
20260502025517 57 248 1.0 4.0 0.00 0.00 0.00 54 1010.8
20260502024517 57 0.0 3.0 0.00 0.00 0.00 52 1010.6
20260502023519 57 0.0 3.0 0.00 0.00 0.00 50 1010.7
20260502022520 57 0.0 2.0 0.00 0.00 0.00 49 1010.6
20260502021517 57 0.0 1.0 0.00 0.00 0.00 50 1010.7
20260502020517 56 0.0 1.0 0.00 0.00 0.00 53 1010.6
20260502015517 56 0.0 0.0 0.00 0.00 0.00 53 1010.7
20260502014517 56 0.0 1.0 0.00 0.00 0.00 54 1010.6
20260502013519 56 0.0 0.0 0.00 0.00 0.00 54 1010.3
20260502012517 56 0.0 0.0 0.00 0.00 0.00 54 1010.3
20260502011517 56 0.0 0.0 0.00 0.00 0.00 52 1010.2
20260502010517 56 0.0 0.0 0.00 0.00 0.00 51 1010.0
20260502005537 56 0.0 0.0 0.00 0.00 0.00 51 1010.0
20260502004517 56 0.0 0.0 0.00 0.00 0.00 51 1009.8
20260502003517 56 0.0 0.0 0.00 0.00 0.00 49 1009.7
20260502002518 57 0.0 0.0 0.00 0.00 0.00 47 1009.6
20260502001530 57 0.0 0.0 0.00 0.00 0.00 46 1009.4
20260502000517 58 0.0 0.0 0.00 0.00 0.00 46 1009.3
20260501235517 59 0.0 0.0 0.00 0.00 0.00 45 1009.2
20260501234517 59 0.0 0.0 0.00 0.00 0.00 41 1009.1
20260501233517 60 0.0 0.0 0.00 0.00 0.00 41 1009.0
20260501232517 61 0.0 0.0 0.00 0.00 0.00 37 1008.9
20260501231517 62 0.0 1.0 0.00 0.00 0.00 35 1008.7
20260501230517 63 0.0 1.0 0.00 0.00 0.00 34 1008.7
20260501225517 64 0.0 2.0 0.00 0.00 0.00 32 1008.6
20260501224517 65 45 1.0 2.0 0.00 0.00 0.00 31 1008.5
20260501223517 66 0.0 2.0 0.00 0.00 0.00 32 1008.3
20260501222517 65 45 1.0 3.0 0.00 0.00 0.00 32 1008.4
20260501221537 65 45 1.0 5.0 0.00 0.00 0.00 31 1008.4
20260501220517 66 23 1.0 3.0 0.00 0.00 0.00 31 1008.4
20260501215518 65 45 1.0 3.0 0.00 0.00 0.00 31 1008.5
20260501214517 66 45 1.0 6.0 0.00 0.00 0.00 32 1008.4
20260501213517 66 23 1.0 5.0 0.00 0.00 0.00 30 1008.5
20260501212517 66 23 2.0 6.0 0.00 0.00 0.00 32 1008.4